Probability
13 10 10 10 10 10 6 3 3 3 3 0 0 0 0 0 0 0 0 0 0 0 0 0 0 3 3 6 10 6 6 6 6 6 6 6 3 3
13 13 10 10 6 6 6 3 3 3 3 3 0 3 3 6 0 0 0 0 0 0 0 0 0 0 0 0 3 3 3 3 0 0 0 0 0 0
23 10 6 3 6 6 6 6 3 3 3 6 3 3 6 3 0 0 0 0 0 0 0 0 0 0 0 0 0 0 0 0 0 0 0 0 0 0
23 13 13 10 10 10 10 10 6 3 3 3 3 6 6 3 3 3 0 0 0 0 0 0 0 0 0 0 0 0 0 0 0 0 0 0 0 0
19 19 10 16 13 10 10 10 10 10 6 6 3 3 3 6 3 3 3 3 0 0 0 0 0 0 0 0 0 0 0 0 0 0 0 0 0 0
19 19 19 13 16 13 10 10 13 13 6 3 3 3 3 3 3 3 3 3 3 3 3 0 0 0 0 0 0 0 0 0 0 0 0 0 0 0
19 19 19 16 13 13 16 13 13 6 6 6 6 6 3 3 3 3 6 3 3 3 3 0 0 0 0 0 0 0 0 0 0 0 0 0 0 0
16 19 16 16 16 10 10 10 6 6 6 6 6 6 6 3 3 3 3 3 3 0 0 0 0 0 0 0 0 0 0 0 0 0 0 0 0 0
13 13 13 19 16 16 10 3 3 0 6 6 6 6 6 3 3 3 3 3 3 0 0 0 0 0 0 0 0 0 0 0 0 0 0 0 0 0
13 10 10 10 13 13 10 10 10 10 6 3 6 6 3 3 0 0 0 0 0 0 0 0 0 0 0 0 0 0 0 0 0 0 0 0 0 0
10 10 10 13 10 0 10 10 10 10 3 0 0 3 0 0 0 0 0 0 0 0 0 0 0 0 0 0 0 0 0 0 0 0 0 0 0 0
6 6 3 6 6 0 0 10 10 10 6 3 0 0 0 0 0 0 0 0 0 0 0 0 0 0 0 0 0 0 0 0 0 0 0 0 0 0
10 6 6 3 3 0 0 3 6 6 6 6 10 3 0 0 0 0 0 3 0 0 0 0 0 0 0 0 0 0 0 0 0 0 0 0 0 0
10 10 10 3 3 0 0 0 0 0 3 6 6 3 6 6 0 0 0 0 0 0 0 0 0 0 0 0 0 0 0 0 0 0 0 0 0 0
6 6 3 3 3 0 0 0 0 0 0 6 6 6 6 6 6 3 0 0 0 0 0 0 0 0 0 0 0 0 0 0 0 0 0 0 0 0
3 3 3 0 0 3 3 0 0 0 0 6 6 6 3 6 3 3 3 3 0 0 0 0 0 0 0 0 0 0 0 0 0 0 0 0 0 0
3 3 3 3 0 3 3 3 0 0 0 3 10 6 6 6 3 3 3 3 3 3 3 0 0 0 0 0 0 0 0 0 0 0 0 0 0 0
3 3 3 3 3 3 3 3 3 3 3 3 6 6 10 6 3 3 3 3 3 3 3 3 0 0 0 0 0 0 0 0 0 0 0 0 0 0
3 3 3 3 3 3 3 3 3 3 0 3 3 6 3 3 3 3 3 3 3 3 3 3 3 3 3 3 3 0 0 0 0 0 0 0 3 0
3 3 6 6 6 6 3 3 3 3 0 0 0 0 3 3 3 3 3 3 3 3 3 3 3 3 3 3 3 3 0 3 3 0 0 0 0 0
0 6 6 6 6 3 3 3 3 3 0 0 0 0 0 0 3 3 3 3 3 3 3 3 3 3 3 3 3 3 3 0 0 3 3 0 0 0
0 0 0 6 3 3 3 3 3 0 0 0 0 0 0 0 0 0 3 3 3 3 3 3 3 3 3 3 3 3 3 3 0 0 0 0 0 0
0 0 0 0 6 6 6 6 6 3 0 0 0 0 0 0 0 0 0 0 3 3 3 3 3 3 3 3 3 3 3 3 0 0 0 0 0 0
Height
5866 5866 5865 5865 5864 5863 5863 5863 5863 5862 5862 5861 5861 5860 5860 5859 5859 5858 5858 5857 5856 5856 5855 5855 5854 5852 5851 5851 5850 5849 5848 5847 5846 5845 5843 5842 5841 5840
5863 5862 5861 5861 5860 5859 5858 5858 5857 5857 5856 5856 5856 5856 5855 5855 5854 5853 5852 5852 5852 5851 5850 5850 5849 5848 5846 5845 5845 5844 5843 5841 5840 5839 5837 5836 5835 5834
5858 5858 5857 5856 5855 5854 5854 5853 5852 5851 5851 5851 5851 5850 5850 5850 5849 5848 5847 5847 5846 5845 5845 5844 5843 5842 5841 5840 5838 5837 5836 5835 5834 5832 5831 5830 5829 5827
5853 5853 5852 5851 5850 5849 5849 5848 5847 5846 5846 5846 5845 5845 5845 5844 5843 5842 5841 5840 5840 5840 5839 5838 5837 5836 5834 5833 5832 5831 5829 5828 5827 5826 5824 5823 5822 5821
5848 5847 5846 5845 5845 5844 5843 5842 5841 5840 5840 5839 5839 5839 5838 5838 5837 5836 5835 5834 5833 5833 5832 5831 5830 5829 5828 5826 5825 5824 5823 5821 5820 5819 5817 5816 5815 5813
5842 5841 5840 5839 5838 5837 5836 5836 5835 5834 5833 5833 5832 5832 5831 5830 5830 5829 5829 5827 5826 5826 5825 5824 5823 5822 5820 5819 5818 5817 5815 5814 5812 5811 5810 5808 5807 5806
5835 5833 5833 5832 5831 5830 5829 5829 5828 5827 5826 5826 5825 5825 5824 5824 5823 5822 5821 5820 5819 5818 5817 5816 5815 5814 5813 5812 5810 5809 5807 5806 5805 5803 5802 5801 5800 5799
5827 5826 5825 5824 5824 5823 5822 5821 5821 5820 5819 5818 5818 5817 5817 5816 5815 5814 5813 5812 5811 5811 5809 5808 5806 5805 5804 5803 5802 5800 5799 5797 5796 5795 5794 5793 5792 5791
5820 5818 5817 5816 5815 5815 5814 5813 5813 5812 5811 5810 5810 5809 5808 5807 5806 5805 5804 5803 5802 5801 5800 5799 5797 5796 5795 5793 5793 5792 5790 5789 5788 5787 5786 5785 5784 5782
5812 5810 5809 5808 5807 5806 5806 5805 5804 5803 5802 5801 5801 5800 5799 5798 5796 5796 5795 5794 5794 5792 5791 5790 5788 5787 5786 5784 5783 5782 5781 5780 5779 5778 5777 5776 5775 5774
5803 5802 5800 5800 5799 5798 5797 5796 5795 5794 5792 5791 5791 5790 5788 5787 5786 5786 5785 5784 5784 5783 5782 5780 5779 5778 5777 5776 5774 5772 5771 5771 5770 5769 5768 5767 5766 5764
5793 5793 5792 5791 5790 5788 5787 5786 5785 5784 5782 5781 5780 5779 5778 5777 5776 5775 5774 5773 5773 5773 5772 5770 5769 5768 5767 5766 5764 5763 5761 5760 5759 5758 5757 5756 5755 5754
5784 5783 5782 5781 5780 5779 5778 5776 5775 5774 5772 5771 5770 5769 5768 5766 5765 5764 5763 5762 5762 5761 5761 5759 5758 5757 5756 5755 5754 5752 5751 5750 5749 5748 5747 5746 5745 5744
5775 5774 5772 5771 5770 5769 5768 5766 5765 5763 5762 5760 5759 5758 5757 5756 5755 5753 5752 5751 5751 5750 5749 5748 5747 5746 5745 5744 5743 5742 5740 5739 5738 5738 5737 5736 5735 5734
5764 5763 5762 5761 5760 5759 5757 5755 5754 5752 5751 5750 5749 5748 5747 5745 5744 5743 5742 5740 5739 5738 5737 5736 5736 5735 5734 5733 5732 5731 5729 5728 5727 5727 5726 5726 5725 5724
5754 5752 5751 5750 5749 5748 5746 5745 5743 5742 5740 5739 5738 5737 5736 5734 5733 5732 5730 5729 5728 5727 5726 5725 5724 5723 5723 5722 5721 5720 5718 5717 5717 5716 5715 5715 5714 5713
5742 5741 5740 5739 5738 5737 5735 5734 5733 5731 5730 5728 5727 5726 5724 5723 5722 5720 5719 5718 5717 5715 5714 5713 5712 5711 5711 5710 5709 5708 5708 5707 5706 5706 5705 5704 5704 5703
5731 5730 5729 5727 5726 5725 5724 5723 5722 5720 5718 5717 5716 5715 5713 5712 5710 5709 5707 5706 5705 5704 5703 5701 5700 5700 5699 5699 5698 5698 5697 5697 5696 5696 5695 5694 5694 5692
5720 5719 5717 5716 5714 5713 5712 5711 5710 5709 5707 5706 5705 5703 5702 5701 5699 5698 5696 5695 5694 5692 5691 5690 5689 5688 5688 5688 5688 5687 5687 5686 5686 5685 5685 5684 5683 5682
5709 5708 5706 5704 5703 5702 5701 5700 5699 5698 5697 5695 5694 5692 5691 5689 5688 5687 5686 5684 5683 5682 5681 5680 5679 5678 5677 5677 5677 5677 5676 5676 5676 5675 5675 5674 5673 5672
5699 5697 5696 5693 5692 5691 5690 5689 5688 5687 5686 5684 5683 5682 5680 5679 5678 5676 5675 5674 5673 5671 5670 5670 5669 5668 5667 5666 5666 5666 5666 5665 5665 5665 5664 5663 5662 5661
5689 5687 5685 5684 5682 5681 5680 5679 5677 5676 5675 5674 5672 5671 5670 5668 5667 5666 5664 5663 5662 5661 5660 5659 5658 5657 5656 5656 5655 5656 5656 5655 5654 5654 5653 5653 5652 5652
5679 5677 5676 5674 5672 5671 5669 5668 5667 5666 5665 5664 5662 5661 5659 5658 5656 5655 5654 5652 5651 5650 5649 5648 5647 5646 5646 5646 5645 5645 5645 5644 5644 5643 5643 5643 5643 5642
Wind_Speed
10 10 11 11 12 13 13 13 13 14 14 15 15 15 16 16 16 16 16 17 16 17 17 18 18 18 18 19 20 20 21 21 21 21 21 22 22 21
11 12 12 13 13 13 14 15 15 15 15 16 16 17 17 17 17 18 19 18 19 18 18 18 19 19 20 20 21 22 22 22 22 23 22 22 22 22
13 13 13 14 14 14 15 16 16 16 16 17 17 18 19 19 18 19 20 21 21 20 20 21 21 21 21 21 21 22 23 23 24 24 23 23 23 23
15 15 15 16 16 16 16 16 17 18 18 19 19 19 20 20 20 21 21 21 22 23 23 23 23 23 23 23 23 23 23 24 24 24 24 24 24 24
17 17 18 18 18 18 18 18 19 19 20 20 20 21 22 21 21 21 22 22 23 23 24 25 25 26 26 26 25 25 25 25 25 25 25 25 25 24
19 20 20 20 20 20 20 20 20 20 21 21 22 23 24 24 24 24 24 25 25 25 25 26 27 27 27 26 27 27 27 27 26 26 26 26 26 26
21 22 22 22 22 22 22 22 22 22 22 22 23 23 24 25 26 26 27 27 27 28 28 28 29 29 29 28 28 28 28 27 27 26 26 26 26 27
23 23 23 23 24 24 24 24 24 24 24 25 25 25 26 26 27 27 28 28 29 29 29 30 30 30 30 30 30 29 29 28 28 27 27 27 27 28
25 25 25 25 25 25 26 26 26 26 26 27 27 27 28 29 29 30 30 30 30 30 30 30 30 30 30 31 31 31 30 30 30 30 29 28 28 29
27 27 27 26 26 26 26 27 28 29 29 29 29 29 30 30 31 31 31 32 32 32 32 31 31 31 31 31 31 31 31 31 30 30 30 30 30 30
28 28 28 28 28 28 29 29 30 30 31 31 31 32 32 32 32 32 33 33 33 32 33 33 32 32 32 32 32 32 32 32 32 32 32 32 32 32
29 30 31 30 30 30 31 31 31 32 32 33 33 34 33 33 33 33 34 34 34 34 33 34 34 34 34 33 34 33 32 32 32 32 32 32 32 32
31 31 32 31 31 32 32 32 33 33 33 34 34 34 34 34 34 34 35 35 35 35 35 35 35 35 35 35 34 34 34 33 33 32 32 32 32 32
31 32 32 32 32 33 33 33 33 34 34 34 34 34 34 35 35 35 36 36 36 36 35 35 35 35 35 34 34 33 33 33 33 32 32 32 32 32
32 32 32 33 34 34 34 34 34 34 35 35 34 34 34 34 35 35 36 36 36 35 35 35 35 35 35 35 34 33 33 33 32 32 32 32 32 32
33 33 34 34 35 35 35 34 35 35 35 35 35 35 35 35 36 36 36 37 37 36 35 36 36 35 35 34 34 33 33 33 33 32 32 32 32 32
34 35 36 36 36 36 35 35 35 35 36 36 36 36 35 35 36 36 36 37 37 36 36 36 36 36 36 35 34 34 34 32 31 30 30 30 30 30
34 34 35 35 35 35 35 35 35 35 36 36 36 36 36 36 36 36 36 36 35 35 35 35 35 35 34 33 33 33 33 32 31 31 31 31 31 31
33 33 33 34 34 34 35 35 35 35 35 35 35 36 36 36 36 36 35 35 35 34 33 33 34 34 33 32 32 32 32 32 32 31 31 31 32 32
31 31 32 34 34 34 34 34 35 35 35 35 35 35 35 35 35 35 35 34 34 34 32 32 33 33 33 32 32 32 32 32 31 31 32 32 32 32
30 31 32 33 33 33 33 33 34 34 34 34 33 34 34 34 34 34 34 34 35 34 33 32 32 33 33 32 32 31 31 32 32 32 32 32 32 31
30 31 31 31 31 31 32 32 33 32 32 32 32 32 32 32 33 33 33 34 33 33 33 33 32 32 31 31 32 32 32 32 32 32 32 31 30 30
28 28 29 29 30 30 31 31 31 32 32 32 31 30 30 30 31 32 32 32 31 31 31 31 32 32 32 33 33 32 31 31 31 31 30 30 29 29
Wind_Direction
281 278 276 275 274 271 271 273 274 271 267 264 265 267 268 267 268 269 271 271 271 271 274 274 275 274 275 277 279 279 279 280 280 280 279 278 278 278
281 279 277 276 277 276 276 276 276 274 270 268 267 266 269 272 273 272 270 269 270 271 272 274 275 275 277 277 277 278 279 280 280 280 280 278 277 278
281 278 275 275 277 280 279 278 277 275 273 270 270 269 271 272 274 275 272 269 270 272 274 275 277 279 279 279 278 277 279 279 279 279 279 277 277 277
280 278 276 275 277 280 281 280 278 278 275 271 270 271 273 275 276 276 272 272 272 273 274 276 278 279 280 279 279 280 280 280 279 278 278 276 275 276
278 278 278 278 277 278 281 281 280 280 278 276 272 271 273 275 276 278 277 274 275 276 276 276 277 279 280 281 281 281 281 280 279 278 278 276 275 275
277 277 277 276 276 276 278 280 279 278 277 277 276 273 272 273 274 275 277 277 277 278 277 277 278 279 281 282 280 281 280 280 281 280 278 276 275 275
277 275 275 274 274 275 275 276 276 278 277 277 277 276 274 274 273 273 275 278 279 278 277 277 278 279 280 281 281 282 281 279 279 280 279 277 276 276
277 276 275 275 275 274 274 274 274 276 276 276 277 277 276 274 273 273 274 275 276 278 278 277 277 278 279 279 280 281 282 279 279 280 280 278 278 278
277 276 275 275 275 275 274 275 276 277 277 277 277 278 278 277 275 273 274 275 277 278 279 279 278 279 279 278 278 279 279 278 278 279 278 278 278 278
277 276 276 274 275 276 277 278 278 278 278 278 277 277 276 276 276 275 275 276 277 277 279 279 277 278 279 278 278 278 279 278 278 278 279 278 279 278
277 277 277 275 275 276 277 279 279 280 278 278 277 278 278 276 275 275 276 276 275 276 277 279 279 279 279 279 279 279 278 277 277 278 278 278 277 277
276 276 277 277 276 277 278 279 279 280 280 278 279 279 279 278 276 276 276 275 275 276 277 279 279 279 279 279 278 277 278 278 277 277 277 277 276 276
277 277 277 277 277 278 278 279 280 279 279 278 279 280 279 277 277 276 276 277 277 278 278 278 278 279 279 279 279 277 277 277 277 276 275 275 275 275
277 278 276 276 276 277 279 280 280 281 280 279 279 279 279 278 277 276 276 277 278 278 278 278 278 278 278 279 279 278 276 275 276 276 274 275 275 275
277 278 277 277 278 279 281 280 281 282 281 279 279 279 278 278 277 277 277 278 278 277 276 277 277 277 277 277 278 278 278 275 275 274 273 273 274 274
276 277 278 278 278 279 280 280 281 281 280 279 279 279 278 278 277 277 277 277 276 274 274 275 276 277 276 276 276 277 277 276 274 274 273 272 274 275
276 277 278 277 277 277 278 279 279 280 279 279 278 278 278 278 277 277 277 276 276 274 274 275 276 277 277 278 277 277 276 275 274 273 273 274 276 277
278 278 277 276 276 276 276 277 278 279 280 280 280 279 278 277 278 278 277 277 276 275 275 276 277 276 276 276 277 276 274 274 273 273 273 276 277 278
281 280 278 277 276 276 276 277 277 279 280 280 280 279 278 278 278 278 278 277 276 276 277 277 277 277 277 276 275 273 273 274 273 274 276 277 278 278
282 281 279 277 275 275 276 276 277 278 279 279 279 280 279 278 278 279 278 276 276 276 276 276 277 277 278 276 274 273 273 273 273 274 276 276 276 277
282 282 282 279 277 276 276 275 276 276 277 280 280 279 278 277 277 277 277 277 276 275 275 275 276 277 276 274 273 273 274 274 274 273 274 275 274 274
284 283 282 280 278 277 276 276 276 278 279 280 281 280 279 278 278 276 276 276 275 275 275 275 275 276 275 275 274 273 273 273 273 272 272 273 273 273
284 283 282 281 279 280 278 278 279 279 280 280 280 280 279 279 278 276 275 275 275 275 276 275 274 274 274 274 274 273 272 272 272 272 272 272 271 271